TimeCDT,TemperatureF,Dew PointF,Humidity,Sea Level PressureIn,VisibilityMPH,Wind Direction,Wind SpeedMPH,Gust SpeedMPH,PrecipitationIn,Events,Conditions,WindDirDegrees,DateUTC
12:56 AM,43.0,32.0,65,29.84,-9999.0,West,5.8,-,N/A,,Unknown,260,2012-10-08 05:56:00
1:56 AM,42.1,30.0,62,29.84,-9999.0,West,3.5,-,N/A,,Unknown,260,2012-10-08 06:56:00
2:56 AM,41.0,30.0,65,29.82,-9999.0,Calm,Calm,-,N/A,,Unknown,0,2012-10-08 07:56:00
3:56 AM,39.0,30.0,70,29.81,-9999.0,Calm,Calm,-,N/A,,Unknown,0,2012-10-08 08:56:00
4:56 AM,37.0,28.9,73,29.80,-9999.0,Calm,Calm,-,N/A,,Unknown,0,2012-10-08 09:56:00
5:56 AM,36.0,28.0,73,29.79,-9999.0,Calm,Calm,-,N/A,,Unknown,0,2012-10-08 10:56:00
6:56 AM,37.0,28.9,73,29.78,-9999.0,Calm,Calm,-,N/A,,Unknown,0,2012-10-08 11:56:00
7:56 AM,39.0,30.9,73,29.77,-9999.0,Calm,Calm,-,N/A,,Unknown,0,2012-10-08 12:56:00
8:56 AM,44.1,33.1,65,29.77,-9999.0,Calm,Calm,-,N/A,,Unknown,0,2012-10-08 13:56:00
9:56 AM,44.1,32.0,63,29.75,-9999.0,Calm,Calm,-,N/A,,Unknown,0,2012-10-08 14:56:00
10:56 AM,46.0,33.1,61,29.74,-9999.0,Calm,Calm,-,N/A,,Unknown,0,2012-10-08 15:56:00
11:56 AM,46.9,32.0,56,29.73,-9999.0,Calm,Calm,-,N/A,,Unknown,0,2012-10-08 16:56:00
12:56 PM,45.0,36.0,71,29.70,-9999.0,South,3.5,-,N/A,,Unknown,180,2012-10-08 17:56:00
1:56 PM,45.0,37.9,76,29.69,-9999.0,South,3.5,-,N/A,,Unknown,180,2012-10-08 18:56:00
2:56 PM,46.0,34.0,63,29.66,-9999.0,Calm,Calm,-,N/A,,Unknown,0,2012-10-08 19:56:00
3:56 PM,43.0,34.0,71,29.65,-9999.0,East,6.9,-,0.02,,Unknown,80,2012-10-08 20:56:00
4:56 PM,42.1,36.0,79,29.62,-9999.0,ENE,5.8,-,0.03,,Unknown,60,2012-10-08 21:56:00
5:56 PM,42.1,39.0,89,29.62,-9999.0,NNE,5.8,-,0.08,,Unknown,30,2012-10-08 22:56:00
6:56 PM,43.0,39.9,89,29.60,-9999.0,NNE,4.6,-,0.05,,Unknown,30,2012-10-08 23:56:00
7:56 PM,44.1,41.0,89,29.58,-9999.0,NE,4.6,-,0.03,,Unknown,50,2012-10-09 00:56:00
8:56 PM,44.1,42.1,93,29.57,-9999.0,Calm,Calm,-,0.03,,Unknown,0,2012-10-09 01:56:00
9:56 PM,44.1,42.1,93,29.57,-9999.0,Calm,Calm,-,N/A,,Unknown,0,2012-10-09 02:56:00
10:56 PM,43.0,41.0,93,29.57,-9999.0,Calm,Calm,-,N/A,,Unknown,0,2012-10-09 03:56:00
11:56 PM,43.0,41.0,93,29.57,-9999.0,West,5.8,-,N/A,,Unknown,260,2012-10-09 04:56:00